DW6536 Weather Reports


Display with metric or nautical units.
time (UTC)temp
F
wind
direction
speed
MPH
gust
MPH
rain 1hr
in
rain 24hr
in
rain mn
in
humidity
%
barometer
mb
20260902083016 79 137 0.0 0.0 0.00 0.00 0.00 76 1011.8
20260902081509 80 137 0.0 0.0 0.00 0.00 0.00 75 1012.1
20260902080008 80 137 0.0 0.0 0.00 0.00 0.00 74 1012.1
20260902074506 81 137 0.0 0.0 0.00 0.00 0.00 74 1012.0
20260902073005 81 149 0.0 0.0 0.00 0.00 0.00 74 1012.1
20260902071504 81 168 0.0 0.0 0.00 0.00 0.00 73 1012.2
20260902070001 82 168 0.0 0.0 0.00 0.00 0.00 72 1012.3
20260902064559 82 168 0.0 0.0 0.00 0.00 0.00 71 1012.3
20260902064500 82 168 0.0 0.0 0.00 0.00 0.00 71 1012.3
20260902063104 83 168 0.0 0.0 0.00 0.00 0.00 71 1012.3
20260902061612 83 131 0.0 0.0 0.00 0.00 0.00 70 1012.2
20260902060054 83 187 1.0 0.0 0.00 0.00 0.00 70 1012.2
20260902054552 84 162 0.0 0.0 0.00 0.00 0.00 69 1012.1
20260902053052 84 116 1.0 0.0 0.00 0.00 0.00 68 1012.1
20260902051549 84 191 0.0 0.0 0.00 0.00 0.00 68 1012.0
20260902050047 85 130 1.0 0.0 0.00 0.00 0.00 66 1012.1
20260902044546 85 151 1.0 0.0 0.00 0.00 0.00 65 1012.2
20260902043049 86 134 1.0 0.0 0.00 0.00 0.00 64 1012.1
20260902041546 86 162 1.0 0.0 0.00 0.00 0.00 63 1012.1
20260902040046 86 156 0.0 0.0 0.00 0.00 0.00 63 1012.0
20260902034545 86 154 0.0 0.0 0.00 0.00 0.00 62 1011.9
20260902033057 87 120 0.0 0.0 0.00 0.00 0.00 61 1011.7
20260902031544 87 141 1.0 0.0 0.00 0.00 0.00 60 1011.6
20260902030044 88 114 1.0 0.0 0.00 0.00 0.00 59 1011.3
20260902024543 88 186 1.0 0.0 0.00 0.00 0.00 58 1010.9
20260902023046 89 153 0.0 0.0 0.00 0.00 0.00 56 1010.8
20260902021543 89 161 1.0 0.0 0.00 0.00 0.00 55 1010.6
20260902020043 90 93 1.0 0.0 0.00 0.00 0.00 53 1010.4
20260902014542 90 127 1.0 0.0 0.00 0.00 0.00 52 1010.1
20260902013041 91 139 0.0 0.0 0.00 0.00 0.00 50 1010.0
20260902011541 92 128 0.0 0.0 0.00 0.00 0.00 49 1009.8
20260902010047 92 135 1.0 0.0 0.00 0.00 0.00 48 1009.7
20260902004540 93 131 1.0 0.0 0.00 0.00 0.00 47 1009.8
20260902003039 94 120 1.0 0.0 0.00 0.00 0.00 45 1010.0
20260902001540 95 112 1.0 0.0 0.00 0.00 0.00 44 1009.9
20260902000038 96 86 1.0 0.0 0.00 0.00 0.00 43 1009.9
20260901234537 97 212 1.0 0.0 0.00 0.00 0.00 44 1009.8
20260901233038 97 150 1.0 0.0 0.00 0.00 0.00 43 1009.8
20260901231538 96 150 1.0 0.0 0.00 0.00 0.00 44 1009.8
20260901230042 97 97 1.0 0.0 0.00 0.00 0.00 43 1009.7
20260901224535 98 67 2.0 0.0 0.00 0.00 0.00 43 1009.7
20260901223034 97 122 1.0 0.0 0.00 0.00 0.00 43 1009.8
20260901221551 97 129 2.0 0.0 0.00 0.00 0.00 44 1009.8
20260901220033 96 124 1.0 0.0 0.00 0.00 0.00 44 1009.8
20260901214532 98 55 1.0 0.0 0.00 0.00 0.00 43 1009.8
20260901213056 101 158 2.0 0.0 0.00 0.00 0.00 40 1009.9
20260901211540 101 47 2.0 0.0 0.00 0.00 0.00 40 1010.1
20260901210035 99 122 2.0 0.0 0.00 0.00 0.00 41 1010.2
20260901204526 99 20 1.0 0.0 0.00 0.00 0.00 41 1010.6
20260901203033 99 102 2.0 0.0 0.00 0.00 0.00 42 1010.8
20260901201521 98 97 1.0 0.0 0.00 0.00 0.00 44 1010.9
20260901200037 99 26 2.0 0.0 0.00 0.00 0.00 42 1011.2
20260901194519 99 156 1.0 0.0 0.00 0.00 0.00 43 1011.4
20260901193018 99 85 2.0 0.0 0.00 0.00 0.00 43 1011.6
20260901191514 98 134 1.0 0.0 0.00 0.00 0.00 44 1011.8
20260901190010 96 56 2.0 0.0 0.00 0.00 0.00 47 1012.0
20260901184507 97 95 2.0 0.0 0.00 0.00 0.00 45 1012.3
20260901183009 96 160 1.0 0.0 0.00 0.00 0.00 46 1012.5
20260901181504 96 122 2.0 0.0 0.00 0.00 0.00 48 1012.8
20260901174600 95 21 1.0 0.0 0.00 0.00 0.00 50 1013.2
20260901173058 95 6 2.0 0.0 0.00 0.00 0.00 50 1013.4
20260901171606 94 261 1.0 0.0 0.00 0.00 0.00 52 1013.6
20260901170056 94 23 2.0 0.0 0.00 0.00 0.00 53 1013.9
20260901164552 93 47 1.0 0.0 0.00 0.00 0.00 55 1013.9
20260901163050 92 108 2.0 0.0 0.00 0.00 0.00 57 1014.0
20260901161548 91 16 2.0 0.0 0.00 0.00 0.00 56 1014.2
20260901160046 91 236 1.0 0.0 0.00 0.00 0.00 60 1014.2
20260901154541 89 238 1.0 0.0 0.00 0.00 0.00 62 1014.2
20260901153038 88 223 1.0 0.0 0.00 0.00 0.00 65 1014.1
20260901151535 87 309 1.0 0.0 0.00 0.00 0.00 67 1014.1
20260901150031 85 198 1.0 0.0 0.00 0.00 0.00 71 1014.1
20260901144527 83 282 1.0 0.0 0.00 0.00 0.00 75 1014.3
20260901143027 82 279 1.0 0.0 0.00 0.00 0.00 78 1014.3
20260901141535 81 241 1.0 0.0 0.00 0.00 0.00 81 1014.5
20260901140025 79 266 1.0 0.0 0.00 0.00 0.00 83 1014.6
20260901134523 78 343 0.0 0.0 0.00 0.00 0.00 85 1014.5
20260901133020 77 244 0.0 0.0 0.00 0.00 0.00 86 1014.2
20260901131524 76 221 0.0 0.0 0.00 0.00 0.00 87 1014.2
20260901130017 76 307 0.0 0.0 0.00 0.00 0.00 88 1013.9
20260901124515 75 186 0.0 0.0 0.00 0.00 0.00 87 1013.7
20260901123019 75 186 0.0 0.0 0.00 0.00 0.00 87 1013.7
20260901121512 76 186 0.0 0.0 0.00 0.00 0.00 86 1013.4
20260901120028 76 186 0.0 0.0 0.00 0.00 0.00 85 1013.3
20260901114515 76 186 0.0 0.0 0.00 0.00 0.00 85 1013.4
20260901113008 77 186 0.0 0.0 0.00 0.00 0.00 84 1013.4
20260901111506 77 186 0.0 0.0 0.00 0.00 0.00 84 1013.3
20260901110004 77 276 0.0 0.0 0.00 0.00 0.00 83 1013.3
20260901104502 78 186 0.0 0.0 0.00 0.00 0.00 83 1013.2
20260901103003 78 201 0.0 0.0 0.00 0.00 0.00 82 1013.1
20260901101600 78 189 0.0 0.0 0.00 0.00 0.00 82 1013.0
20260901094559 78 203 0.0 0.0 0.00 0.00 0.00 82 1013.1
20260901093104 79 211 0.0 0.0 0.00 0.00 0.00 81 1013.4
20260901091608 79 114 0.0 0.0 0.00 0.00 0.00 80 1013.4
20260901090056 79 168 0.0 0.0 0.00 0.00 0.00 79 1013.2
20260901084558 80 191 0.0 0.0 0.00 0.00 0.00 79 1013.1